�������l�o���
Date,Time,MP-1(��Sv/h),MP-2(��Sv/h),MP-3(��Sv/h),MP-4(��Sv/h),MP-5(��Sv/h),MP-6(��Sv/h),MP-7(��Sv/h),MP-8(��Sv/h),����,����(m/s),���J
2021/11/24,00:00,0.579,0.865,0.554,1.061,0.747,0.355,0.615,0.578,���k��,6.6,��
2021/11/24,00:10,0.578,0.866,0.556,1.062,0.749,0.355,0.616,0.578,���k��,6.7,��
2021/11/24,00:20,0.577,0.863,0.554,1.062,0.747,0.356,0.616,0.576,���k��,6.1,��
2021/11/24,00:30,0.577,0.866,0.553,1.064,0.747,0.354,0.615,0.578,�k��,6.6,��
2021/11/24,00:40,0.578,0.863,0.554,1.062,0.748,0.354,0.616,0.578,���k��,5.4,��
2021/11/24,00:50,0.578,0.862,0.551,1.062,0.744,0.354,0.614,0.579,���k��,4.2,��
2021/11/24,01:00,0.578,0.865,0.553,1.062,0.746,0.353,0.615,0.579,���k��,2.8,��
2021/11/24,01:10,0.579,0.863,0.553,1.063,0.747,0.354,0.616,0.579,���쐼,2.5,��
2021/11/24,01:20,0.578,0.863,0.554,1.061,0.745,0.353,0.616,0.576,���k��,2.5,��
2021/11/24,01:30,0.578,0.863,0.554,1.062,0.747,0.354,0.614,0.577,��,2.6,��
2021/11/24,01:40,0.578,0.863,0.553,1.062,0.745,0.355,0.615,0.578,���k��,3.1,��
2021/11/24,01:50,0.577,0.866,0.552,1.061,0.746,0.354,0.615,0.578,��,2.2,��
2021/11/24,02:00,0.577,0.864,0.552,1.061,0.745,0.355,0.615,0.578,��,2.2,��
2021/11/24,02:10,0.576,0.864,0.553,1.061,0.747,0.354,0.614,0.578,��,3.7,��
2021/11/24,02:20,0.579,0.864,0.551,1.061,0.747,0.355,0.614,0.579,��,4.8,��
2021/11/24,02:30,0.579,0.864,0.553,1.060,0.745,0.355,0.615,0.579,��,5.2,��
2021/11/24,02:40,0.579,0.861,0.553,1.061,0.747,0.354,0.615,0.578,��,2.9,��
2021/11/24,02:50,0.577,0.863,0.552,1.062,0.745,0.353,0.616,0.578,��,2.6,��
2021/11/24,03:00,0.576,0.863,0.552,1.060,0.745,0.353,0.614,0.577,��,2.9,��
2021/11/24,03:10,0.577,0.863,0.553,1.061,0.746,0.353,0.614,0.578,���쐼,4.1,��
2021/11/24,03:20,0.577,0.863,0.552,1.062,0.746,0.355,0.615,0.578,���쐼,2.5,��
2021/11/24,03:30,0.579,0.863,0.553,1.062,0.746,0.355,0.615,0.578,���쐼,2.3,��
2021/11/24,03:40,0.577,0.866,0.552,1.061,0.746,0.354,0.615,0.580,��쐼,2.2,��
2021/11/24,03:50,0.576,0.865,0.552,1.060,0.744,0.354,0.615,0.577,��쐼,2.0,��
2021/11/24,04:00,0.578,0.864,0.553,1.060,0.745,0.353,0.613,0.578,�쐼,2.6,��
2021/11/24,04:10,0.578,0.864,0.553,1.059,0.746,0.354,0.612,0.579,�쐼,4.1,��
2021/11/24,04:20,0.578,0.862,0.551,1.062,0.746,0.353,0.613,0.578,�쐼,6.0,��
2021/11/24,04:30,0.577,0.863,0.552,1.060,0.747,0.353,0.614,0.577,���쐼,5.8,��
2021/11/24,04:40,0.577,0.863,0.553,1.060,0.745,0.353,0.614,0.578,���쐼,6.4,��
2021/11/24,04:50,0.577,0.865,0.553,1.062,0.745,0.353,0.614,0.577,���쐼,6.7,��
2021/11/24,05:00,0.576,0.864,0.552,1.062,0.745,0.354,0.613,0.579,��,4.3,��
2021/11/24,05:10,0.578,0.862,0.553,1.063,0.748,0.353,0.614,0.580,��,3.7,��
2021/11/24,05:20,0.577,0.865,0.552,1.060,0.743,0.353,0.614,0.580,��,3.9,��
2021/11/24,05:30,0.578,0.865,0.553,1.062,0.746,0.352,0.613,0.577,��,5.1,��
2021/11/24,05:40,0.578,0.863,0.553,1.062,0.746,0.353,0.613,0.579,��,6.9,��
2021/11/24,05:50,0.577,0.863,0.553,1.061,0.748,0.352,0.613,0.578,��,8.7,��
2021/11/24,06:00,0.578,0.864,0.552,1.061,0.746,0.355,0.612,0.578,��,8.0,��
2021/11/24,06:10,0.577,0.865,0.553,1.061,0.745,0.354,0.615,0.579,���쐼,8.0,��
2021/11/24,06:20,0.579,0.863,0.551,1.061,0.746,0.355,0.613,0.577,���쐼,6.6,��
2021/11/24,06:30,0.577,0.865,0.554,1.063,0.746,0.354,0.614,0.578,���쐼,5.8,��
2021/11/24,06:40,0.577,0.864,0.552,1.059,0.745,0.353,0.613,0.578,���쐼,5.8,��
2021/11/24,06:50,0.577,0.864,0.552,1.063,0.747,0.355,0.613,0.579,���쐼,6.3,��
2021/11/24,07:00,0.576,0.862,0.552,1.060,0.748,0.353,0.614,0.580,�쐼,5.7,��
2021/11/24,07:10,0.578,0.866,0.552,1.061,0.749,0.354,0.614,0.578,���쐼,5.7,��
2021/11/24,07:20,0.578,0.864,0.554,1.063,0.748,0.352,0.613,0.579,���쐼,5.9,�L
2021/11/24,07:30,0.579,0.864,0.552,1.062,0.747,0.355,0.613,0.579,���쐼,6.2,��
2021/11/24,07:40,0.576,0.865,0.553,1.062,0.747,0.353,0.614,0.579,���쐼,5.0,��
2021/11/24,07:50,0.577,0.863,0.553,1.061,0.746,0.353,0.614,0.578,���쐼,4.5,��
2021/11/24,08:00,0.578,0.865,0.553,1.063,0.746,0.354,0.616,0.579,���쐼,4.0,��
2021/11/24,08:10,0.579,0.863,0.552,1.064,0.746,0.355,0.615,0.579,���쐼,7.3,�L
2021/11/24,08:20,0.578,0.865,0.552,1.066,0.747,0.355,0.614,0.579,��,9.0,��
2021/11/24,08:30,0.578,0.864,0.553,1.061,0.746,0.355,0.614,0.579,��,7.9,��
2021/11/24,08:40,0.578,0.863,0.553,1.064,0.746,0.355,0.616,0.579,��,7.7,��
2021/11/24,08:50,0.579,0.864,0.554,1.065,0.746,0.354,0.615,0.580,���쐼,10.4,��
2021/11/24,09:00,0.578,0.864,0.552,1.066,0.746,0.353,0.614,0.578,���쐼,11.3,��
2021/11/24,09:10,0.578,0.863,0.553,1.065,0.746,0.352,0.614,0.577,���쐼,10.9,��
2021/11/24,09:20,0.579,0.865,0.554,1.064,0.747,0.354,0.614,0.578,���쐼,11.6,��
2021/11/24,09:30,0.577,0.865,0.554,1.064,0.747,0.355,0.612,0.580,��,10.7,��
2021/11/24,09:40,0.579,0.861,0.554,1.066,0.747,0.356,0.615,0.578,��,10.2,��
2021/11/24,09:50,0.578,0.862,0.553,1.064,0.748,0.355,0.612,0.579,��,11.1,��
2021/11/24,10:00,0.580,0.861,0.551,1.062,0.746,0.357,0.613,0.578,���쐼,9.3,��
2021/11/24,10:10,0.580,0.862,0.553,1.066,0.747,0.357,0.611,0.578,��,8.0,��
2021/11/24,10:20,0.580,0.864,0.552,1.065,0.747,0.354,0.613,0.579,��,9.6,��
2021/11/24,10:30,0.579,0.865,0.552,1.065,0.749,0.355,0.613,0.579,��,9.0,��
2021/11/24,10:40,0.579,0.863,0.554,1.065,0.748,0.357,0.613,0.580,��,8.7,��
2021/11/24,10:50,0.578,0.863,0.554,1.064,0.747,0.355,0.615,0.579,���쐼,7.9,��
2021/11/24,11:00,0.578,0.864,0.555,1.065,0.747,0.356,0.613,0.578,���쐼,8.1,�L
2021/11/24,11:10,0.579,0.864,0.555,1.065,0.750,0.355,0.613,0.579,���쐼,6.4,�L
2021/11/24,11:20,0.579,0.863,0.552,1.065,0.747,0.356,0.613,0.579,���쐼,8.3,�L
2021/11/24,11:30,0.580,0.865,0.552,1.066,0.748,0.356,0.611,0.580,���쐼,7.8,�L
2021/11/24,11:40,0.581,0.865,0.554,1.066,0.747,0.355,0.612,0.579,���쐼,11.1,��
2021/11/24,11:50,0.579,0.868,0.555,1.067,0.748,0.357,0.613,0.578,���쐼,8.7,��
2021/11/24,12:00,0.579,0.865,0.553,1.066,0.748,0.358,0.613,0.578,���쐼,9.1,��
2021/11/24,12:10,0.579,0.866,0.553,1.067,0.746,0.357,0.611,0.580,��,9.1,��
2021/11/24,12:20,0.579,0.868,0.555,1.065,0.748,0.355,0.613,0.580,��,9.1,��
2021/11/24,12:30,0.581,0.867,0.557,1.067,0.748,0.356,0.613,0.579,��,8.6,��
2021/11/24,12:40,0.579,0.866,0.554,1.064,0.748,0.356,0.614,0.579,��,7.7,��
2021/11/24,12:50,0.579,0.868,0.553,1.067,0.747,0.357,0.613,0.577,��,9.6,��
2021/11/24,13:00,0.580,0.864,0.555,1.068,0.747,0.356,0.613,0.576,���쐼,10.0,��
2021/11/24,13:10,0.579,0.865,0.555,1.064,0.746,0.356,0.615,0.577,���쐼,7.7,��
2021/11/24,13:20,0.579,0.864,0.554,1.067,0.747,0.356,0.615,0.576,��,8.8,��
2021/11/24,13:30,0.581,0.866,0.554,1.065,0.747,0.356,0.613,0.577,���쐼,9.0,�L
2021/11/24,13:40,0.579,0.864,0.555,1.067,0.750,0.356,0.613,0.577,��,9.3,��
2021/11/24,13:50,0.579,0.866,0.556,1.066,0.749,0.356,0.614,0.574,��,6.5,��
2021/11/24,14:00,0.579,0.863,0.554,1.068,0.752,0.356,0.615,0.577,��,7.8,��
2021/11/24,14:10,0.579,0.863,0.556,1.068,0.751,0.356,0.616,0.575,��,8.6,��
2021/11/24,14:20,0.579,0.864,0.556,1.066,0.750,0.357,0.616,0.577,��,9.2,�L
2021/11/24,14:30,0.582,0.865,0.556,1.067,0.752,0.355,0.615,0.576,��,7.5,��
2021/11/24,14:40,0.578,0.867,0.556,1.069,0.751,0.358,0.614,0.578,��,8.5,��
2021/11/24,14:50,0.578,0.868,0.555,1.066,0.751,0.356,0.613,0.577,���쐼,6.9,��
2021/11/24,15:00,0.577,0.866,0.555,1.067,0.749,0.357,0.614,0.579,��,6.8,��
2021/11/24,15:10,0.580,0.867,0.555,1.066,0.750,0.356,0.615,0.580,��,8.5,�L
2021/11/24,15:20,0.580,0.868,0.555,1.066,0.752,0.357,0.616,0.580,���쐼,8.5,�L
2021/11/24,15:30,0.581,0.869,0.555,1.068,0.750,0.357,0.614,0.579,��,9.2,��
2021/11/24,15:40,0.579,0.868,0.555,1.068,0.749,0.356,0.616,0.580,��,10.6,��
2021/11/24,15:50,0.580,0.868,0.555,1.069,0.749,0.355,0.615,0.579,��,10.5,��
2021/11/24,16:00,0.580,0.869,0.555,1.067,0.748,0.357,0.616,0.577,��,7.7,��
2021/11/24,16:10,0.580,0.870,0.555,1.067,0.751,0.356,0.616,0.580,��,6.6,��
2021/11/24,16:20,0.583,0.870,0.556,1.068,0.750,0.356,0.615,0.578,���쐼,5.6,��
2021/11/24,16:30,0.580,0.870,0.556,1.069,0.749,0.357,0.615,0.578,��,7.8,��
2021/11/24,16:40,0.581,0.871,0.554,1.068,0.750,0.356,0.616,0.580,���쐼,7.3,��
2021/11/24,16:50,0.580,0.870,0.554,1.067,0.751,0.356,0.615,0.579,���쐼,4.8,��
2021/11/24,17:00,0.580,0.871,0.555,1.068,0.752,0.357,0.616,0.579,���쐼,3.6,��
2021/11/24,17:10,0.579,0.867,0.554,1.065,0.752,0.356,0.614,0.579,��,3.9,��
2021/11/24,17:20,0.580,0.872,0.556,1.068,0.749,0.355,0.617,0.579,���쐼,5.2,��
2021/11/24,17:30,0.581,0.870,0.554,1.068,0.750,0.356,0.616,0.578,���쐼,6.8,��
2021/11/24,17:40,0.579,0.871,0.556,1.066,0.752,0.356,0.616,0.579,��,11.8,��
2021/11/24,17:50,0.580,0.870,0.555,1.067,0.750,0.357,0.617,0.578,���쐼,8.3,��
2021/11/24,18:00,0.578,0.870,0.555,1.068,0.752,0.355,0.615,0.581,���쐼,10.2,��
2021/11/24,18:10,0.581,0.871,0.555,1.067,0.752,0.356,0.615,0.579,���쐼,8.6,��
2021/11/24,18:20,0.579,0.867,0.555,1.067,0.751,0.357,0.616,0.578,���쐼,8.1,��
2021/11/24,18:30,0.582,0.869,0.555,1.067,0.751,0.355,0.616,0.580,���쐼,7.4,��
2021/11/24,18:40,0.580,0.870,0.555,1.067,0.750,0.355,0.615,0.579,���쐼,7.7,��
2021/11/24,18:50,0.581,0.870,0.555,1.070,0.751,0.356,0.615,0.579,���쐼,6.6,��
2021/11/24,19:00,0.581,0.869,0.554,1.067,0.752,0.356,0.615,0.579,�쐼,7.5,��
2021/11/24,19:10,0.579,0.869,0.557,1.068,0.752,0.355,0.616,0.578,���쐼,5.9,��
2021/11/24,19:20,0.579,0.868,0.554,1.069,0.752,0.358,0.616,0.579,���쐼,5.5,��
2021/11/24,19:30,0.581,0.871,0.555,1.068,0.752,0.354,0.615,0.578,���쐼,5.2,��
2021/11/24,19:40,0.580,0.872,0.554,1.068,0.753,0.355,0.615,0.580,�쐼,2.3,��
2021/11/24,19:50,0.580,0.869,0.556,1.068,0.751,0.356,0.616,0.579,���k��,1.5,��
2021/11/24,20:00,0.579,0.869,0.556,1.067,0.750,0.356,0.616,0.580,�k��,1.4,��
2021/11/24,20:10,0.580,0.870,0.555,1.070,0.751,0.357,0.615,0.579,��쐼,0.9,��
2021/11/24,20:20,0.579,0.867,0.554,1.068,0.751,0.358,0.614,0.578,��,1.7,��
2021/11/24,20:30,0.579,0.869,0.555,1.066,0.751,0.355,0.615,0.579,�쐼,2.9,��
2021/11/24,20:40,0.580,0.868,0.555,1.067,0.751,0.355,0.615,0.578,���쐼,1.5,��
2021/11/24,20:50,0.579,0.871,0.556,1.069,0.752,0.355,0.616,0.579,��쐼,1.2,��
2021/11/24,21:00,0.579,0.870,0.554,1.066,0.750,0.355,0.615,0.580,��쐼,1.1,��
2021/11/24,21:10,0.578,0.868,0.555,1.066,0.751,0.355,0.615,0.579,��쓌,1.2,��
2021/11/24,21:20,0.581,0.869,0.555,1.069,0.752,0.355,0.615,0.579,��쓌,2.3,��
2021/11/24,21:30,0.578,0.868,0.553,1.066,0.752,0.356,0.615,0.579,-,CALM,��
2021/11/24,21:40,0.579,0.872,0.554,1.066,0.751,0.355,0.615,0.578,��쓌,1.2,��
2021/11/24,21:50,0.578,0.869,0.555,1.067,0.751,0.355,0.615,0.579,��,3.4,��
2021/11/24,22:00,0.580,0.867,0.554,1.069,0.751,0.356,0.615,0.579,��,4.2,��
2021/11/24,22:10,0.579,0.868,0.554,1.067,0.750,0.355,0.615,0.578,��,3.2,��
2021/11/24,22:20,0.580,0.870,0.555,1.067,0.752,0.355,0.615,0.579,��,3.0,��
2021/11/24,22:30,0.581,0.870,0.553,1.068,0.751,0.354,0.614,0.579,��쓌,1.7,��
2021/11/24,22:40,0.578,0.869,0.555,1.069,0.750,0.355,0.615,0.578,��,3.3,��
2021/11/24,22:50,0.581,0.869,0.554,1.067,0.752,0.353,0.615,0.578,��,4.6,��
2021/11/24,23:00,0.580,0.868,0.553,1.069,0.750,0.354,0.615,0.579,��쐼,3.8,��
2021/11/24,23:10,0.581,0.869,0.554,1.068,0.751,0.356,0.615,0.581,��쐼,2.2,��
2021/11/24,23:20,0.582,0.869,0.553,1.068,0.751,0.354,0.614,0.579,��쐼,1.7,��
2021/11/24,23:30,0.579,0.869,0.554,1.070,0.751,0.355,0.614,0.581,��,0.6,��
2021/11/24,23:40,0.580,0.868,0.555,1.070,0.750,0.355,0.614,0.579,�쐼,0.9,��
2021/11/24,23:50,0.580,0.867,0.554,1.066,0.750,0.356,0.614,0.579,��,2.0,��
